Regional Weather Roundup
Issued by NWS

Home | Current Version | Previous Version | Graphics & Text | Print | Product List | Glossary On
Versions: 1 2 3 4 5 6 7 8 9 10 11 12 13 14 15 16 17 18 19 20 21 22 23 24 25 26 27
000
ASUS45 KBOU 312007
RWRCO

WEATHER ROUNDUP FOR COLORADO
NATIONAL WEATHER SERVICE DENVER/BOULDER CO
200 PM MDT FRI OCT 31 2014

NOTE: "FAIR" INDICATES FEW OR NO CLOUDS BELOW 12000 FEET WITH NO
SIGNIFICANT WEATHER AND/OR OBSTRUCTIONS TO VISIBILITY.

COZ001>005-013-030-031-312100-
...NORTHWEST COLORADO...

CITY           SKY/WX    TMP DP  RH WIND       PRES   REMARKS
CRAIG          PTSUNNY   67  28  23 VRB3      30.12F
HAYDEN         PTSUNNY   63  27  25 N5        30.14F
MEEKER         MOSUNNY   67  23  19 SW10G18   30.14F
MOUNT WERNER   NOT AVBL
STEAMBOAT SPGS PTSUNNY   64  24  22 CALM      30.15F
WALDEN         PTSUNNY   59  21  23 SW12G17   30.20F
$$

COZ006>008-011-312100-
...WEST CENTRAL VALLEYS...

CITY           SKY/WX    TMP DP  RH WIND       PRES   REMARKS
GRAND JUNCTION MOSUNNY   66  23  19 SE7       30.09F
MONTROSE       CLOUDY    58  25  28 N5        30.17F
EAGLE          MOSUNNY   55  25  30 CALM      30.20F
RIFLE          PTSUNNY   59  27  29 CALM      30.14F
DELTA          CLOUDY    62  27  26 E5        30.14F
NUCLA          CLOUDY    66  25  20 W5        30.20F
$$

COZ017>023-064>068-312100-
...SOUTHWEST COLORADO...

CITY           SKY/WX    TMP DP  RH WIND       PRES   REMARKS
DURANGO        SUNNY     60  26  27 E8        30.27F
CORTEZ         SUNNY     69  25  19 S12G17    30.21F
PAGOSA SPRINGS SUNNY     59  21  22 CALM      30.33F
TELLURIDE      PTSUNNY   55  19  24 SE10G20   30.33F
WOLF CREEK PAS PTSUNNY   37  21  52 SW18G31   30.48F
$$

COZ009-010-012-014-032>034-037-058>063-312100-
...CENTRAL COLORADO...

CITY           SKY/WX    TMP DP  RH WIND       PRES   REMARKS
ASPEN          MOSUNNY   62  18  18 N7        30.20F
BUENA VISTA    PTSUNNY   55  20  26 S6        30.26F
COPPER MTN     MOSUNNY   50   3  14 S16G22    30.43F
BERTHOUD PASS  FAIR      36  34  93 N6        30.46F
COTTONWOOD PAS PTSUNNY   50  19  29 SE6       30.34F
GUNNISON       MOSUNNY   57  19  23 SW5       30.27F
KREMMLING      MOSUNNY   55  23  28 CALM      30.21F
LEADVILLE      MOSUNNY   52  13  21 S8        30.31F
SALIDA         PTSUNNY   59  22  24 SE7       30.31F
SUNLIGHT       MOSUNNY   50  21  32 CALM      30.39F
WILKERSON PASS NOT AVBL
$$

COZ069>075-312100-
...SAN LUIS VALLEY/SANGRE DE CRISTO MOUNTAINS...

CITY           SKY/WX    TMP DP  RH WIND       PRES   REMARKS
ALAMOSA        SUNNY     62  21  20 S7G17     30.29F
LA VETA PASS   MOSUNNY   54  23  30 S8G23     30.40F
SAGUACHE       MOSUNNY   54  23  30 S9        30.32F
$$

COZ035-036-038>040-312100-
...NORTHERN COLORADO FRONT RANGE...

CITY           SKY/WX    TMP DP  RH WIND       PRES   REMARKS
DENVER INTL AP MOSUNNY   56  30  37 NW6       30.17F
DMNS CITY PARK   N/A     54  30  39 W6        30.17F
AURORA         MOSUNNY   56  31  38 N9        30.17F
FRONT RANGE AP MOSUNNY   59  30  33 S9G22     30.18
ERIE MUNI ARPT SUNNY     51  29  42 CALM      30.18F
BOULDER MUN AP SUNNY     52  32  46 CALM      30.18F
CENTENNIAL     MOSUNNY   56  29  35 SE13G18   30.17F
BROOMFIELD     PTSUNNY   50  28  43 CALM      30.18F
FORT COLLINS   MOSUNNY   48  28  46 CALM      30.20F
LONGMONT       MOSUNNY   56  31  38 CALM      30.20F
$$

COZ041-046-047-076>085-087-088-312100-
...PIKES PEAK/PALMER DIVIDE AND SOUTHERN FOOTHILLS...

CITY           SKY/WX    TMP DP  RH WIND       PRES   REMARKS
COLO. SPRINGS  MOSUNNY   48  28  46 S14G20    30.27F
A. F. ACADEMY  SUNNY     46  28  49 S16       30.25F
ELLICOTT       SUNNY     50  28  42 S15G22    30.26F
FALCON         SUNNY     46  27  48 S16G24    30.28F
FORT CARSON    SUNNY     49  29  44 VRB6      30.25F
LIMON          SUNNY     49  28  44 S28G36    30.25F
MONUMENT HILL  SUNNY     46  28  49 S21       30.20F
TRINIDAD       MOSUNNY   62  26  25 NE3       30.24F
$$

COZ042>045-048>051-090-091-312100-
...NORTHEAST COLORADO...

CITY           SKY/WX    TMP DP  RH WIND       PRES   REMARKS
GREELEY ARPT   MOSUNNY   54  30  40 CALM      30.19F
AKRON          SUNNY     53  27  36 S26G38    30.24F
BURLINGTON     SUNNY     50  26  39 S22G32    30.31F
WRAY           SUNNY     52  27  39 SE17G26   30.31F
STERLING       NOT AVBL
HOLYOKE        SUNNY     52  30  43 SE21      30.30F
FORT MORGAN    SUNNY     57  27  32 SE18G29   30.21F
$$

COZ086-089-092>099-312100-
...SOUTHEAST COLORADO...

CITY           SKY/WX    TMP DP  RH WIND       PRES   REMARKS
PUEBLO         SUNNY     54  27  35 S3        30.24F
LA JUNTA       SUNNY     62  31  31 SE22G29   30.22F
LAMAR          SUNNY     57  28  33 SE22G28   30.30F
SPRINGFIELD      N/A     55  29  36 S22       30.33F
$$



USA.gov is the U.S. government's official web portal to all federal, state and local government web resources and services.